CES726 VHHH-ZSPD

Flight info

Callsign CES726
Flight time N/A
Altitude 39000
Route LEKEN1X/07R LEKEN V601 DOTMI/K0854S1130 A470 LJG B221 SHZ W58 BK BK81A
Aircraft A20N/M-SDE2E3FGHIRWXY/LB1

Departure

Time N/A
Airport Hong Kong International Airport (VHHH)

Arrival

Time 2026-05-05 14:32
Airport Shanghai Pudong International Airport (ZSPD)
Time Latitude Longitude Altitude Speed Heading
2026-05-05 14:04 29.87102 121.28993 24144 ft 454 kts 54°
2026-05-05 14:04 29.88978 121.31883 23595 ft 447 kts 45°
2026-05-05 14:04 29.91243 121.34281 23066 ft 438 kts 34°
2026-05-05 14:05 29.93794 121.36145 22536 ft 430 kts 26°
2026-05-05 14:05 29.96426 121.37789 22004 ft 426 kts 25°
2026-05-05 14:05 29.99030 121.39379 21475 ft 421 kts 25°
2026-05-05 14:05 30.01597 121.40952 20934 ft 410 kts 25°
2026-05-05 14:06 30.04077 121.42488 20406 ft 398 kts 25°
2026-05-05 14:06 30.06489 121.43991 19922 ft 389 kts 25°
2026-05-05 14:06 30.08844 121.45462 19412 ft 381 kts 26°
2026-05-05 14:06 30.11161 121.46912 18914 ft 375 kts 26°
2026-05-05 14:07 30.13443 121.48343 18420 ft 371 kts 26°
2026-05-05 14:07 30.15708 121.49763 17928 ft 369 kts 26°
2026-05-05 14:07 30.17961 121.51180 17446 ft 367 kts 26°
2026-05-05 14:07 30.20200 121.52589 16955 ft 366 kts 26°
2026-05-05 14:08 30.22444 121.54000 16457 ft 365 kts 26°
2026-05-05 14:08 30.24676 121.55403 15970 ft 364 kts 26°
2026-05-05 14:08 30.26895 121.56813 15475 ft 363 kts 27°
2026-05-05 14:08 30.29103 121.58242 14973 ft 362 kts 27°
2026-05-05 14:09 30.31298 121.59667 14483 ft 361 kts 27°
2026-05-05 14:09 30.33490 121.61089 13992 ft 359 kts 27°
2026-05-05 14:09 30.35669 121.62501 13495 ft 358 kts 27°
2026-05-05 14:09 30.37827 121.63925 13001 ft 356 kts 29°
2026-05-05 14:10 30.39944 121.65403 12495 ft 355 kts 31°
2026-05-05 14:10 30.42049 121.66895 11994 ft 354 kts 31°
2026-05-05 14:10 30.44155 121.68386 11496 ft 352 kts 31°
2026-05-05 14:10 30.46235 121.69856 11004 ft 350 kts 31°
2026-05-05 14:11 30.48291 121.71307 10719 ft 339 kts 31°
2026-05-05 14:11 30.50237 121.72681 10545 ft 313 kts 31°
2026-05-05 14:11 30.52027 121.73943 10381 ft 290 kts 31°
2026-05-05 14:11 30.53727 121.75141 10241 ft 282 kts 31°
2026-05-05 14:12 30.55396 121.76317 10110 ft 277 kts 30°
2026-05-05 14:12 30.57119 121.77334 9896 ft 278 kts 22°
2026-05-05 14:12 30.59004 121.78042 9804 ft 288 kts 14°
2026-05-05 14:12 30.60970 121.78592 9831 ft 291 kts 13°
2026-05-05 14:13 30.62952 121.79118 9850 ft 292 kts 13°
2026-05-05 14:13 30.64943 121.79647 9860 ft 292 kts 13°
2026-05-05 14:13 30.66928 121.80179 9863 ft 292 kts 13°
2026-05-05 14:13 30.68917 121.80715 9867 ft 293 kts 13°
2026-05-05 14:14 30.70908 121.81255 9872 ft 293 kts 13°
2026-05-05 14:14 30.72897 121.81795 9871 ft 293 kts 13°
2026-05-05 14:14 30.74890 121.82338 9870 ft 292 kts 13°
2026-05-05 14:14 30.76875 121.82878 9870 ft 292 kts 13°
2026-05-05 14:15 30.78861 121.83419 9873 ft 291 kts 13°
2026-05-05 14:15 30.80831 121.83956 9868 ft 291 kts 13°
2026-05-05 14:15 30.82813 121.84497 9864 ft 291 kts 13°
2026-05-05 14:15 30.84787 121.85035 9864 ft 291 kts 13°
2026-05-05 14:16 30.86777 121.85579 9870 ft 292 kts 13°
2026-05-05 14:16 30.88762 121.86122 9871 ft 292 kts 13°
2026-05-05 14:16 30.90744 121.86663 9867 ft 292 kts 13°
2026-05-05 14:16 30.92755 121.86900 9843 ft 291 kts 351°
2026-05-05 14:17 30.94608 121.86024 9856 ft 290 kts 323°
2026-05-05 14:17 30.96143 121.84499 9863 ft 290 kts 317°
2026-05-05 14:17 30.97644 121.82929 9856 ft 290 kts 317°
2026-05-05 14:17 30.99159 121.81365 9866 ft 289 kts 318°
2026-05-05 14:18 31.00674 121.79825 9862 ft 289 kts 318°
2026-05-05 14:18 31.02197 121.78288 9850 ft 289 kts 319°
2026-05-05 14:18 31.03718 121.76747 9847 ft 289 kts 318°
2026-05-05 14:18 31.05237 121.75184 9855 ft 289 kts 318°
2026-05-05 14:19 31.06750 121.73622 9860 ft 290 kts 318°
2026-05-05 14:19 31.08261 121.72061 9875 ft 290 kts 318°
2026-05-05 14:19 31.09781 121.70494 9856 ft 290 kts 318°
2026-05-05 14:19 31.11294 121.68934 9808 ft 291 kts 318°
2026-05-05 14:20 31.12906 121.67482 9347 ft 294 kts 329°
2026-05-05 14:20 31.14767 121.66479 8854 ft 296 kts 341°
2026-05-05 14:20 31.16730 121.65748 8362 ft 295 kts 343°
2026-05-05 14:20 31.18666 121.65074 7868 ft 285 kts 343°
2026-05-05 14:21 31.20551 121.64415 7384 ft 284 kts 343°
2026-05-05 14:21 31.22450 121.63739 6889 ft 285 kts 343°
2026-05-05 14:21 31.24349 121.63056 6396 ft 286 kts 343°
2026-05-05 14:21 31.26247 121.62362 5995 ft 284 kts 343°
2026-05-05 14:22 31.28132 121.61650 5606 ft 283 kts 342°
2026-05-05 14:22 31.30008 121.60933 5222 ft 282 kts 342°
2026-05-05 14:22 31.31867 121.60224 4830 ft 281 kts 342°
2026-05-05 14:22 31.33724 121.59516 4446 ft 278 kts 342°
2026-05-05 14:23 31.35526 121.58830 4133 ft 263 kts 342°
2026-05-05 14:23 31.37234 121.58179 3882 ft 252 kts 343°
2026-05-05 14:23 31.38918 121.57926 3608 ft 239 kts 14°
2026-05-05 14:23 31.40304 121.58834 3353 ft 225 kts 55°
2026-05-05 14:24 31.40903 121.60464 3117 ft 218 kts 83°
2026-05-05 14:24 31.41140 121.62216 2994 ft 217 kts 84°
2026-05-05 14:24 31.41392 121.63939 2980 ft 209 kts 83°
2026-05-05 14:24 31.41659 121.65563 2972 ft 197 kts 83°
2026-05-05 14:25 31.41719 121.67078 2947 ft 180 kts 112°
2026-05-05 14:25 31.41018 121.68235 3062 ft 176 kts 142°
2026-05-05 14:25 31.39963 121.68964 3033 ft 176 kts 156°
2026-05-05 14:25 31.38822 121.69488 3010 ft 175 kts 160°
2026-05-05 14:26 31.37663 121.69954 3003 ft 175 kts 161°
2026-05-05 14:26 31.36503 121.70403 2998 ft 175 kts 162°
2026-05-05 14:26 31.35337 121.70846 2996 ft 176 kts 163°
2026-05-05 14:26 31.34166 121.71281 2979 ft 175 kts 161°
2026-05-05 14:27 31.33003 121.71728 2996 ft 175 kts 162°
2026-05-05 14:27 31.31838 121.72169 2992 ft 175 kts 162°
2026-05-05 14:27 31.30667 121.72609 2991 ft 175 kts 162°
2026-05-05 14:27 31.29502 121.73047 2851 ft 175 kts 162°
2026-05-05 14:28 31.28346 121.73481 2622 ft 172 kts 162°
2026-05-05 14:28 31.27231 121.73901 2389 ft 161 kts 162°
2026-05-05 14:28 31.26202 121.74289 2170 ft 148 kts 162°
2026-05-05 14:28 31.25235 121.74654 1982 ft 145 kts 163°
2026-05-05 14:29 31.24288 121.75011 1794 ft 137 kts 163°
2026-05-05 14:29 31.23415 121.75341 1603 ft 126 kts 163°
2026-05-05 14:29 31.22581 121.75655 1448 ft 125 kts 163°
2026-05-05 14:29 31.21746 121.75970 1329 ft 126 kts 163°
2026-05-05 14:30 31.20919 121.76282 1156 ft 123 kts 163°
2026-05-05 14:30 31.20103 121.76590 981 ft 122 kts 163°
2026-05-05 14:30 31.19293 121.76896 811 ft 122 kts 163°
2026-05-05 14:30 31.18484 121.77201 647 ft 121 kts 163°
2026-05-05 14:31 31.17680 121.77515 486 ft 121 kts 162°
2026-05-05 14:31 31.16881 121.77831 327 ft 121 kts 161°
2026-05-05 14:31 31.16085 121.78137 171 ft 120 kts 163°
2026-05-05 14:31 31.15292 121.78424 32 ft 116 kts 162°
2026-05-05 14:32 31.14617 121.78666 22 ft 80 kts 163°
2026-05-05 14:32 31.14228 121.78808 22 ft 45 kts 162°
2026-05-05 14:32 31.13969 121.78918 22 ft 34 kts 149°
2026-05-05 14:32 31.13814 121.79070 22 ft 25 kts 134°
2026-05-05 14:33 31.13721 121.79180 22 ft 15 kts 135°
2026-05-05 14:33 31.13633 121.79242 22 ft 14 kts 163°
2026-05-05 14:33 31.13599 121.79313 22 ft 10 kts 71°
2026-05-05 14:33 31.13625 121.79401 22 ft 12 kts 72°
2026-05-05 14:34 31.13652 121.79498 22 ft 13 kts 71°
2026-05-05 14:34 31.13682 121.79605 22 ft 14 kts 72°
2026-05-05 14:34 31.13723 121.79711 22 ft 14 kts 32°
2026-05-05 14:34 31.13821 121.79690 22 ft 14 kts 342°
2026-05-05 14:35 31.13913 121.79655 22 ft 14 kts 342°
2026-05-05 14:35 31.14011 121.79618 22 ft 15 kts 342°
2026-05-05 14:35 31.14116 121.79578 22 ft 16 kts 342°
2026-05-05 14:35 31.14226 121.79536 22 ft 16 kts 343°
2026-05-05 14:36 31.14341 121.79494 22 ft 17 kts 343°
2026-05-05 14:36 31.14458 121.79450 22 ft 18 kts 342°
2026-05-05 14:36 31.14582 121.79403 22 ft 18 kts 341°
2026-05-05 14:36 31.14707 121.79355 22 ft 19 kts 342°
2026-05-05 14:37 31.14817 121.79314 22 ft 10 kts 341°
2026-05-05 14:37 31.14873 121.79342 22 ft 10 kts 66°
2026-05-05 14:37 31.14897 121.79428 22 ft 11 kts 72°
2026-05-05 14:37 31.14923 121.79522 22 ft 12 kts 72°
2026-05-05 14:38 31.14958 121.79594 22 ft 9 kts 50°
2026-05-05 14:38 31.14983 121.79642 22 ft 6 kts 71°
2026-05-05 14:38 31.14994 121.79682 22 ft 5 kts 72°
2026-05-05 14:38 31.15001 121.79706 22 ft 2 kts 72°
2026-05-05 14:39 31.15003 121.79716 22 ft 0 kts 73°